RYR85KM EGGW-LEMI

Flight info

Callsign RYR85KM
Flight time N/A
Altitude 37000
Route RODNI N27 ICTAM Q63 CPT UN859 SOPIL DCT BALAN DCT LMG DCT PIMQO DCT AGN DCT ANETO N860 VLC L34 ALT
Aircraft B38M/M-SDE1FGHILORVWXY/HB1

Departure

Time 2026-05-01 12:08
Airport London Luton Airport (EGGW)

Arrival

Time N/A
Airport Region of Murcia International Airport (LEMI)
Time Latitude Longitude Altitude Speed Heading
2026-05-01 11:54 51.87900 -0.38010 525 ft 7 kts 175°
2026-05-01 11:54 51.87846 -0.37983 525 ft 9 kts 150°
2026-05-01 11:54 51.87800 -0.37905 525 ft 11 kts 119°
2026-05-01 11:55 51.87770 -0.37802 525 ft 9 kts 114°
2026-05-01 11:55 51.87743 -0.37708 525 ft 10 kts 115°
2026-05-01 11:55 51.87711 -0.37599 524 ft 11 kts 116°
2026-05-01 11:55 51.87685 -0.37525 524 ft 5 kts 127°
2026-05-01 11:56 51.87655 -0.37480 524 ft 7 kts 147°
2026-05-01 11:56 51.87603 -0.37454 524 ft 9 kts 176°
2026-05-01 11:56 51.87534 -0.37477 524 ft 11 kts 209°
2026-05-01 11:56 51.87497 -0.37588 524 ft 12 kts 253°
2026-05-01 11:57 51.87472 -0.37732 525 ft 14 kts 254°
2026-05-01 11:57 51.87454 -0.37837 525 ft 14 kts 255°
2026-05-01 11:57 51.87439 -0.37922 525 ft 5 kts 253°
2026-05-01 11:57 51.87433 -0.37956 525 ft 0 kts 253°
2026-05-01 12:01 51.87433 -0.37958 525 ft 1 kts 253°
2026-05-01 12:01 51.87426 -0.37986 525 ft 4 kts 244°
2026-05-01 12:01 51.87405 -0.38030 525 ft 6 kts 226°
2026-05-01 12:02 51.87373 -0.38061 525 ft 5 kts 206°
2026-05-01 12:02 51.87359 -0.38072 525 ft 0 kts 205°
2026-05-01 12:04 51.87359 -0.38073 525 ft 0 kts 205°
2026-05-01 12:04 51.87340 -0.38087 525 ft 8 kts 205°
2026-05-01 12:05 51.87272 -0.38092 526 ft 11 kts 166°
2026-05-01 12:05 51.87258 -0.38030 526 ft 0 kts 75°
2026-05-01 12:05 51.87258 -0.38029 526 ft 1 kts 75°
2026-05-01 12:06 51.87259 -0.38023 526 ft 0 kts 75°
2026-05-01 12:07 51.87319 -0.37676 524 ft 75 kts 75°
2026-05-01 12:08 51.87534 -0.36440 523 ft 151 kts 74°
2026-05-01 12:08 51.87899 -0.34560 851 ft 186 kts 75°
2026-05-01 12:08 51.88285 -0.32514 1847 ft 197 kts 75°
2026-05-01 12:08 51.88691 -0.30291 2716 ft 212 kts 77°
2026-05-01 12:09 51.89041 -0.27919 3556 ft 219 kts 82°
2026-05-01 12:09 51.89210 -0.25675 4256 ft 181 kts 96°
2026-05-01 12:09 51.88955 -0.23850 4886 ft 161 kts 125°
2026-05-01 12:09 51.88188 -0.22588 5377 ft 156 kts 149°
2026-05-01 12:10 51.87152 -0.21760 5692 ft 175 kts 166°
2026-05-01 12:10 51.84644 -0.22404 5919 ft 207 kts 212°
2026-05-01 12:10 51.83607 -0.24174 5997 ft 229 kts 237°
2026-05-01 12:11 51.82920 -0.29615 6224 ft 264 kts 259°
2026-05-01 12:11 51.82646 -0.32576 6363 ft 270 kts 256°
2026-05-01 12:11 51.82308 -0.35576 6463 ft 272 kts 255°
2026-05-01 12:12 51.81956 -0.38580 6615 ft 272 kts 256°
2026-05-01 12:12 51.81614 -0.41602 6867 ft 276 kts 256°
2026-05-01 12:12 51.81237 -0.44613 7831 ft 272 kts 252°
2026-05-01 12:12 51.80780 -0.47621 8866 ft 278 kts 252°
2026-05-01 12:13 51.80320 -0.50687 9867 ft 283 kts 253°
2026-05-01 12:13 51.79854 -0.53789 10820 ft 287 kts 252°
2026-05-01 12:13 51.79365 -0.56976 11573 ft 300 kts 252°
2026-05-01 12:13 51.78849 -0.60337 12120 ft 317 kts 252°
2026-05-01 12:14 51.78308 -0.63872 12779 ft 329 kts 252°
2026-05-01 12:14 51.77756 -0.67470 13674 ft 331 kts 252°
2026-05-01 12:14 51.77199 -0.71097 14469 ft 336 kts 252°
2026-05-01 12:14 51.76630 -0.74781 15254 ft 340 kts 252°
2026-05-01 12:15 51.75862 -0.78375 16025 ft 337 kts 237°
2026-05-01 12:15 51.74478 -0.81392 16763 ft 335 kts 222°
2026-05-01 12:15 51.72816 -0.84046 17453 ft 338 kts 221°
2026-05-01 12:15 51.71142 -0.86727 18134 ft 342 kts 223°
2026-05-01 12:16 51.69465 -0.89487 18792 ft 345 kts 222°
2026-05-01 12:16 51.67766 -0.92250 19429 ft 348 kts 222°
2026-05-01 12:16 51.66045 -0.95028 20042 ft 352 kts 222°
2026-05-01 12:16 51.64308 -0.97818 20629 ft 355 kts 221°
2026-05-01 12:17 51.62546 -1.00640 21220 ft 359 kts 221°
2026-05-01 12:17 51.60769 -1.03483 21772 ft 363 kts 221°
2026-05-01 12:17 51.58963 -1.06368 22279 ft 367 kts 221°
2026-05-01 12:17 51.57207 -1.09169 22805 ft 370 kts 221°
2026-05-01 12:18 51.55369 -1.12099 23320 ft 373 kts 222°
2026-05-01 12:18 51.53520 -1.15041 23838 ft 375 kts 221°
2026-05-01 12:18 51.51500 -1.17664 24280 ft 374 kts 206°
2026-05-01 12:18 51.49061 -1.19035 24769 ft 373 kts 187°
2026-05-01 12:19 51.46465 -1.19009 25171 ft 376 kts 170°
2026-05-01 12:19 51.43951 -1.17772 25609 ft 380 kts 159°
2026-05-01 12:19 51.41498 -1.16134 26012 ft 384 kts 158°
2026-05-01 12:19 51.39039 -1.14419 26436 ft 387 kts 158°
2026-05-01 12:20 51.36566 -1.12654 26861 ft 389 kts 157°
2026-05-01 12:20 51.34092 -1.10866 27259 ft 392 kts 157°
2026-05-01 12:20 51.31595 -1.09047 27647 ft 395 kts 156°